Regional Weather Roundup
Issued by NWS Sioux Falls, SD

Home | Current Version | Previous Version | Graphics & Text | Print | Product List | Glossary Off
Versions: 1 2 3 4 5 6 7 8 9 10 11 12 13 14 15 16 17 18 19 20 21 22 23 24 25 26 27 28 29 30 31 32 33 34 35 36 37 38 39 40 41 42 43 44 45 46 47 48 49 50

244
ASUS43 KFSD 110810
RWRFSD

WEATHER ROUNDUP FOR SE SOUTH DAKOTA/SW MINNESOTA/NW IOWA
NATIONAL WEATHER SERVICE SIOUX FALLS SD
200 AM CST SUN DEC 11 2016

NOTE: "FAIR" INDICATES FEW OR NO CLOUDS BELOW 12,000 FEET WITH NO
SIGNIFICANT WEATHER AND OR OBSTRUCTIONS TO VISIBILITY.


SDZ038>040-050-052>070-110900-
SOUTHEAST SOUTH DAKOTA

CITY           SKY/WX    TMP DP  RH WIND       PRES   REMARKS
BROOKINGS      LGT SNOW  12  10  92 MISG      29.83  FOG
CHAMBERLAIN    CLOUDY    23  21  92 NE5       29.78R WCI  17
HURON          LGT SNOW  18  16  92 E8        29.85S FOG     WCI   8
MADISON        FLURRIES  18  18 100 E13       29.81F WCI   4
MITCHELL       CLOUDY    23  20  88 E12       29.80F WCI  12
SIOUX FALLS    CLOUDY    22  19  89 SE16      29.82F WCI   8
WINNER         CLOUDY    23  20  88 N8        29.75S WCI  14
YANKTON        CLOUDY    25  19  80 E10G16    29.78F WCI  15
$$

MNZ071-072-080-081-089-090-097-098-110900-
SOUTHWEST MINNESOTA

CITY           SKY/WX    TMP DP  RH WIND       PRES   REMARKS
FAIRMONT       LGT SNOW  20  17  88 SE17      29.93F FOG     WCI   5
JACKSON        CLOUDY    19  18  93 SE16      29.89F WCI   5
LUVERNE        CLOUDY    21  18  86 SE10      29.85F WCI  10
MARSHALL       LGT SNOW  14  11  87 E13       29.93F FOG     WCI   0
MONTEVIDEO     LGT SNOW  12  10  92 SE15      29.99F VSB 3/4 WCI  -4
PIPESTONE      CLOUDY    19  18  93 SE10      29.83F WCI   8
REDWOOD FALLS  LGT SNOW  14  10  84 E9        29.97F VSB 3/4 WCI   2
TRACY          CLOUDY    16  14  93 E9        29.92S FOG     WCI   4
WINDOM         FLURRIES  19  16  86 MISG      29.89F
WORTHINGTON    MIX PCPN  19  17  92 SE17      29.86F WCI   4
$$

IAZ001>003-012>014-020>022-031-032-NEZ013-014-SDZ071-110900-
NORTHWEST IOWA

CITY           SKY/WX    TMP DP  RH WIND       PRES   REMARKS
CHEROKEE       CLOUDY    23  21  93 SE8       29.87F WCI  14
DENISON        CLOUDY    27  21  80 E8        29.84S WCI  18
ESTHERVILLE    CLOUDY    20  18  92 SE15      29.91S WCI   6
LE MARS        CLOUDY    25  21  86 E12G17    29.84F WCI  14
ORANGE CITY    CLOUDY    21  21 100 SE10G18   29.82F WCI  10
SHELDON        CLOUDY    21  21 100 SE17G23   29.83F WCI   7
SIOUX CITY     CLOUDY    28  21  75 E16       29.82F WCI  16
SPENCER        CLOUDY    21  19  92 SE8       29.89F WCI  11
STORM LAKE     CLOUDY    21  19  93 SE17      29.87S WCI   7
$$

ABBREVIATIONS USED IN REMARKS
   TC - TEMPERATURE IN CELSIUS
  WCI - WIND CHILL INDEX
   HX - HEAT INDEX
  VSB - VISIBILITY





USA.gov is the U.S. government's official web portal to all federal, state and local government web resources and services.